Location: Newark
(39.6889°N, 28.1522°E)
Time: 09:49:26
(UTC+00:00)

Envisat - Visible Passes

Search period start: 20 October 2019 00:00
Search period end: 30 October 2019 00:00
Orbit: 764 x 766 km, 98.1° (Epoch: 20 October)

Date Brightness Start Highest point End Pass type
(mag) Time Alt. Az. Time Alt. Az. Time Alt. Az.
20 Oct 3.1 15:49:53 10° SSE 15:54:48 54° ENE 15:59:45 10° N visible
20 Oct 5.8 17:30:56 10° SW 17:34:07 17° W 17:37:21 10° NW visible
21 Oct 4.5 16:52:24 10° SSW 16:57:05 37° W 17:01:48 10° NNW visible
22 Oct 3.0 16:15:10 10° SSE 16:20:15 86° WSW 16:25:22 10° NNW visible
23 Oct 3.4 15:38:50 10° SE 15:43:35 42° ENE 15:48:22 10° N visible
23 Oct 5.5 17:18:57 10° SW 17:22:46 21° W 17:26:36 10° NW visible
24 Oct 6.2 03:49:49 10° NE 03:52:48 16° E 03:55:46 10° SE visible
24 Oct 4.0 16:40:54 10° S 16:45:46 48° W 16:50:42 10° NNW visible
25 Oct 2.9 16:03:56 10° SSE 16:08:59 75° ENE 16:14:05 10° N visible
25 Oct 6.2 17:46:49 10° WSW 17:48:32 12° W 17:50:16 10° WNW visible
26 Oct 5.1 17:07:09 10° SSW 17:11:25 27° W 17:15:42 10° NW visible
27 Oct 6.5 03:39:32 10° ENE 03:41:24 12° E 03:43:16 10° ESE visible
27 Oct 3.5 16:29:28 10° S 16:34:29 62° W 16:39:32 10° NNW visible
28 Oct 3.0 15:52:47 10° SSE 15:57:45 59° ENE 16:02:45 10° N visible
28 Oct 5.9 17:34:15 10° SW 17:37:09 15° W 17:40:04 10° NW visible
29 Oct 4.7 16:55:30 10° SSW 17:00:05 34° W 17:04:42 10° NNW visible
